owner,sensor,date,latitude,longitude,vertical_datum,sea_water_practical_salinity,qcFlag 
ENP,ioos.station.NOAA.NDBC:GBIF1:1,2019-11-01T00:00:00Z,25.3780,-81.0290,1.5,20.89,11111222 
ENP,ioos.station.NOAA.NDBC:GBIF1:1,2019-11-01T01:00:00Z,25.3780,-81.0290,1.5,18.9,11111222 
ENP,ioos.station.NOAA.NDBC:GBIF1:1,2019-11-01T02:00:00Z,25.3780,-81.0290,1.5,16.2,11111222 
ENP,ioos.station.NOAA.NDBC:GBIF1:1,2019-11-01T04:00:00Z,25.3780,-81.0290,1.5,12.82,11111222 
ENP,ioos.station.NOAA.NDBC:GBIF1:1,2019-11-01T05:00:00Z,25.3780,-81.0290,1.5,11.71,11111222 
ENP,ioos.station.NOAA.NDBC:GBIF1:1,2019-11-01T06:00:00Z,25.3780,-81.0290,1.5,10.48,11111222 
ENP,ioos.station.NOAA.NDBC:GBIF1:1,2019-11-01T07:00:00Z,25.3780,-81.0290,1.5,11.84,11111222 
ENP,ioos.station.NOAA.NDBC:GBIF1:1,2019-11-01T08:00:00Z,25.3780,-81.0290,1.5,15.26,11111222 
ENP,ioos.station.NOAA.NDBC:GBIF1:1,2019-11-01T09:00:00Z,25.3780,-81.0290,1.5,18.63,11111222 
ENP,ioos.station.NOAA.NDBC:GBIF1:1,2019-11-01T10:00:00Z,25.3780,-81.0290,1.5,21.23,11111222 
ENP,ioos.station.NOAA.NDBC:GBIF1:1,2019-11-01T11:00:00Z,25.3780,-81.0290,1.5,22.48,11111222 
ENP,ioos.station.NOAA.NDBC:GBIF1:1,2019-11-01T12:00:00Z,25.3780,-81.0290,1.5,21.16,11111222 
ENP,ioos.station.NOAA.NDBC:GBIF1:1,2019-11-01T13:00:00Z,25.3780,-81.0290,1.5,18.22,11111222 
ENP,ioos.station.NOAA.NDBC:GBIF1:1,2019-11-01T15:00:00Z,25.3780,-81.0290,1.5,15.06,11111222 
ENP,ioos.station.NOAA.NDBC:GBIF1:1,2019-11-01T17:00:00Z,25.3780,-81.0290,1.5,12.69,11111222 
ENP,ioos.station.NOAA.NDBC:GBIF1:1,2019-11-01T18:00:00Z,25.3780,-81.0290,1.5,10.74,11111222 
ENP,ioos.station.NOAA.NDBC:GBIF1:1,2019-11-01T19:00:00Z,25.3780,-81.0290,1.5,8.02,11111222 
ENP,ioos.station.NOAA.NDBC:GBIF1:1,2019-11-01T20:00:00Z,25.3780,-81.0290,1.5,6.73,11111222 
ENP,ioos.station.NOAA.NDBC:GBIF1:1,2019-11-01T21:00:00Z,25.3780,-81.0290,1.5,7.89,11111222 
ENP,ioos.station.NOAA.NDBC:GBIF1:1,2019-11-01T23:00:00Z,25.3780,-81.0290,1.5,14.6,11111222 
ENP,ioos.station.NOAA.NDBC:GBIF1:1,2019-11-02T00:00:00Z,25.3780,-81.0290,1.5,18.02,11111222 
ENP,ioos.station.NOAA.NDBC:GBIF1:1,2019-11-02T02:00:00Z,25.3780,-81.0290,1.5,16.53,11111222 
ENP,ioos.station.NOAA.NDBC:GBIF1:1,2019-11-02T04:00:00Z,25.3780,-81.0290,1.5,12.23,11111222 
ENP,ioos.station.NOAA.NDBC:GBIF1:1,2019-11-02T05:00:00Z,25.3780,-81.0290,1.5,10.81,11111222 
ENP,ioos.station.NOAA.NDBC:GBIF1:1,2019-11-02T06:00:00Z,25.3780,-81.0290,1.5,9.15,11111222 
ENP,ioos.station.NOAA.NDBC:GBIF1:1,2019-11-02T07:00:00Z,25.3780,-81.0290,1.5,7.66,11111222 
ENP,ioos.station.NOAA.NDBC:GBIF1:1,2019-11-02T08:00:00Z,25.3780,-81.0290,1.5,9.08,11111222 
ENP,ioos.station.NOAA.NDBC:GBIF1:1,2019-11-02T09:00:00Z,25.3780,-81.0290,1.5,12.69,11111222 
ENP,ioos.station.NOAA.NDBC:GBIF1:1,2019-11-02T10:00:00Z,25.3780,-81.0290,1.5,16.2,11111222 
ENP,ioos.station.NOAA.NDBC:GBIF1:1,2019-11-02T11:00:00Z,25.3780,-81.0290,1.5,19.11,11111222 
ENP,ioos.station.NOAA.NDBC:GBIF1:1,2019-11-02T13:00:00Z,25.3780,-81.0290,1.5,17.41,11111222 
ENP,ioos.station.NOAA.NDBC:GBIF1:1,2019-11-02T14:00:00Z,25.3780,-81.0290,1.5,14.6,11111222 
ENP,ioos.station.NOAA.NDBC:GBIF1:1,2019-11-02T15:00:00Z,25.3780,-81.0290,1.5,12.88,11111222 
ENP,ioos.station.NOAA.NDBC:GBIF1:1,2019-11-02T16:00:00Z,25.3780,-81.0290,1.5,11.13,11111222 
ENP,ioos.station.NOAA.NDBC:GBIF1:1,2019-11-02T17:00:00Z,25.3780,-81.0290,1.5,9.59,11111222 
ENP,ioos.station.NOAA.NDBC:GBIF1:1,2019-11-02T18:00:00Z,25.3780,-81.0290,1.5,7.9,11111222 
ENP,ioos.station.NOAA.NDBC:GBIF1:1,2019-11-02T19:00:00Z,25.3780,-81.0290,1.5,7.94,11111222 
ENP,ioos.station.NOAA.NDBC:GBIF1:1,2019-11-02T20:00:00Z,25.3780,-81.0290,1.5,4.99,11111222 
ENP,ioos.station.NOAA.NDBC:GBIF1:1,2019-11-02T21:00:00Z,25.3780,-81.0290,1.5,4.46,11111222 
ENP,ioos.station.NOAA.NDBC:GBIF1:1,2019-11-02T22:00:00Z,25.3780,-81.0290,1.5,4.91,11111222 
ENP,ioos.station.NOAA.NDBC:GBIF1:1,2019-11-02T23:00:00Z,25.3780,-81.0290,1.5,7.54,11111222 
ENP,ioos.station.NOAA.NDBC:GBIF1:1,2019-11-03T00:00:00Z,25.3780,-81.0290,1.5,9.59,11111222 
ENP,ioos.station.NOAA.NDBC:GBIF1:1,2019-11-03T03:00:00Z,25.3780,-81.0290,1.5,15.06,11111222 
ENP,ioos.station.NOAA.NDBC:GBIF1:1,2019-11-03T05:00:00Z,25.3780,-81.0290,1.5,9.84,11111222 
ENP,ioos.station.NOAA.NDBC:GBIF1:1,2019-11-03T06:00:00Z,25.3780,-81.0290,1.5,8.45,11111222 
ENP,ioos.station.NOAA.NDBC:GBIF1:1,2019-11-03T07:00:00Z,25.3780,-81.0290,1.5,5.65,11111222 
ENP,ioos.station.NOAA.NDBC:GBIF1:1,2019-11-03T08:00:00Z,25.3780,-81.0290,1.5,4.64,11111222 
ENP,ioos.station.NOAA.NDBC:GBIF1:1,2019-11-03T09:00:00Z,25.3780,-81.0290,1.5,5.5,11111222 
ENP,ioos.station.NOAA.NDBC:GBIF1:1,2019-11-03T10:00:00Z,25.3780,-81.0290,1.5,7.69,11111222 
ENP,ioos.station.NOAA.NDBC:GBIF1:1,2019-11-03T11:00:00Z,25.3780,-81.0290,1.5,10.61,11111222 
ENP,ioos.station.NOAA.NDBC:GBIF1:1,2019-11-03T12:00:00Z,25.3780,-81.0290,1.5,13.8,11111222 
ENP,ioos.station.NOAA.NDBC:GBIF1:1,2019-11-03T13:00:00Z,25.3780,-81.0290,1.5,14.8,11111222 
ENP,ioos.station.NOAA.NDBC:GBIF1:1,2019-11-03T14:00:00Z,25.3780,-81.0290,1.5,11.13,11111222 
ENP,ioos.station.NOAA.NDBC:GBIF1:1,2019-11-03T15:00:00Z,25.3780,-81.0290,1.5,9.27,11111222 
ENP,ioos.station.NOAA.NDBC:GBIF1:1,2019-11-03T16:00:00Z,25.3780,-81.0290,1.5,7.24,11111222 
ENP,ioos.station.NOAA.NDBC:GBIF1:1,2019-11-03T17:00:00Z,25.3780,-81.0290,1.5,5.57,11111222 
ENP,ioos.station.NOAA.NDBC:GBIF1:1,2019-11-03T18:00:00Z,25.3780,-81.0290,1.5,6.12,11111222 
ENP,ioos.station.NOAA.NDBC:GBIF1:1,2019-11-03T19:00:00Z,25.3780,-81.0290,1.5,6.68,11111222 
ENP,ioos.station.NOAA.NDBC:GBIF1:1,2019-11-03T20:00:00Z,25.3780,-81.0290,1.5,3.84,11111222 
ENP,ioos.station.NOAA.NDBC:GBIF1:1,2019-11-03T21:00:00Z,25.3780,-81.0290,1.5,3.4,11111222 
ENP,ioos.station.NOAA.NDBC:GBIF1:1,2019-11-03T22:00:00Z,25.3780,-81.0290,1.5,3.04,11111222 
ENP,ioos.station.NOAA.NDBC:GBIF1:1,2019-11-03T23:00:00Z,25.3780,-81.0290,1.5,2.93,11111222 
ENP,ioos.station.NOAA.NDBC:GBIF1:1,2019-11-04T00:00:00Z,25.3780,-81.0290,1.5,2.94,11111222 
ENP,ioos.station.NOAA.NDBC:GBIF1:1,2019-11-04T02:00:00Z,25.3780,-81.0290,1.5,5.02,11111222 
ENP,ioos.station.NOAA.NDBC:GBIF1:1,2019-11-04T03:00:00Z,25.3780,-81.0290,1.5,4.14,11111222 
ENP,ioos.station.NOAA.NDBC:GBIF1:1,2019-11-04T05:00:00Z,25.3780,-81.0290,1.5,4.07,11111222 
ENP,ioos.station.NOAA.NDBC:GBIF1:1,2019-11-04T16:00:00Z,25.3780,-81.0290,1.5,7.48,11111222 
ENP,ioos.station.NOAA.NDBC:GBIF1:1,2019-11-04T17:00:00Z,25.3780,-81.0290,1.5,5.94,11111222 
ENP,ioos.station.NOAA.NDBC:GBIF1:1,2019-11-04T18:00:00Z,25.3780,-81.0290,1.5,5.32,11111222 
ENP,ioos.station.NOAA.NDBC:GBIF1:1,2019-11-04T19:00:00Z,25.3780,-81.0290,1.5,4.55,11111222 
ENP,ioos.station.NOAA.NDBC:GBIF1:1,2019-11-04T20:00:00Z,25.3780,-81.0290,1.5,3.63,11111222 
ENP,ioos.station.NOAA.NDBC:GBIF1:1,2019-11-04T21:00:00Z,25.3780,-81.0290,1.5,3.1,11111222 
ENP,ioos.station.NOAA.NDBC:GBIF1:1,2019-11-04T22:00:00Z,25.3780,-81.0290,1.5,3.05,11111222 
ENP,ioos.station.NOAA.NDBC:GBIF1:1,2019-11-04T23:00:00Z,25.3780,-81.0290,1.5,2.84,11111222 
ENP,ioos.station.NOAA.NDBC:GBIF1:1,2019-11-05T00:00:00Z,25.3780,-81.0290,1.5,3.09,11111222 
ENP,ioos.station.NOAA.NDBC:GBIF1:1,2019-11-05T01:00:00Z,25.3780,-81.0290,1.5,4.83,11111222 
ENP,ioos.station.NOAA.NDBC:GBIF1:1,2019-11-05T03:00:00Z,25.3780,-81.0290,1.5,8.7,11111222 
ENP,ioos.station.NOAA.NDBC:GBIF1:1,2019-11-05T05:00:00Z,25.3780,-81.0290,1.5,10.94,11111222 
ENP,ioos.station.NOAA.NDBC:GBIF1:1,2019-11-05T06:00:00Z,25.3780,-81.0290,1.5,8.1,11111222 
ENP,ioos.station.NOAA.NDBC:GBIF1:1,2019-11-05T07:00:00Z,25.3780,-81.0290,1.5,6.75,11111222 
ENP,ioos.station.NOAA.NDBC:GBIF1:1,2019-11-05T08:00:00Z,25.3780,-81.0290,1.5,5.61,11111222 
ENP,ioos.station.NOAA.NDBC:GBIF1:1,2019-11-05T09:00:00Z,25.3780,-81.0290,1.5,5.26,11111222 
ENP,ioos.station.NOAA.NDBC:GBIF1:1,2019-11-05T10:00:00Z,25.3780,-81.0290,1.5,4.33,11111222 
ENP,ioos.station.NOAA.NDBC:GBIF1:1,2019-11-05T11:00:00Z,25.3780,-81.0290,1.5,4.24,11111222 
ENP,ioos.station.NOAA.NDBC:GBIF1:1,2019-11-05T12:00:00Z,25.3780,-81.0290,1.5,5.22,11111222 
ENP,ioos.station.NOAA.NDBC:GBIF1:1,2019-11-05T13:00:00Z,25.3780,-81.0290,1.5,8.15,11111222 
ENP,ioos.station.NOAA.NDBC:GBIF1:1,2019-11-05T14:00:00Z,25.3780,-81.0290,1.5,10.61,11111222 
ENP,ioos.station.NOAA.NDBC:GBIF1:1,2019-11-05T15:00:00Z,25.3780,-81.0290,1.5,12.56,11111222 
ENP,ioos.station.NOAA.NDBC:GBIF1:1,2019-11-05T16:00:00Z,25.3780,-81.0290,1.5,13.61,11111222 
ENP,ioos.station.NOAA.NDBC:GBIF1:1,2019-11-05T17:00:00Z,25.3780,-81.0290,1.5,12.17,11111222 
ENP,ioos.station.NOAA.NDBC:GBIF1:1,2019-11-05T18:00:00Z,25.3780,-81.0290,1.5,10.68,11111222 
ENP,ioos.station.NOAA.NDBC:GBIF1:1,2019-11-05T19:00:00Z,25.3780,-81.0290,1.5,8.58,11111222 
ENP,ioos.station.NOAA.NDBC:GBIF1:1,2019-11-05T20:00:00Z,25.3780,-81.0290,1.5,6.96,11111222 
ENP,ioos.station.NOAA.NDBC:GBIF1:1,2019-11-05T21:00:00Z,25.3780,-81.0290,1.5,5.68,11111222 
ENP,ioos.station.NOAA.NDBC:GBIF1:1,2019-11-05T22:00:00Z,25.3780,-81.0290,1.5,4.21,11111222 
ENP,ioos.station.NOAA.NDBC:GBIF1:1,2019-11-05T23:00:00Z,25.3780,-81.0290,1.5,3.37,11111222 
ENP,ioos.station.NOAA.NDBC:GBIF1:1,2019-11-06T00:00:00Z,25.3780,-81.0290,1.5,3.27,11111222 
ENP,ioos.station.NOAA.NDBC:GBIF1:1,2019-11-06T01:00:00Z,25.3780,-81.0290,1.5,4.01,11111222 
ENP,ioos.station.NOAA.NDBC:GBIF1:1,2019-11-06T02:00:00Z,25.3780,-81.0290,1.5,6.77,11111222 
ENP,ioos.station.NOAA.NDBC:GBIF1:1,2019-11-06T03:00:00Z,25.3780,-81.0290,1.5,9.53,11111222 
ENP,ioos.station.NOAA.NDBC:GBIF1:1,2019-11-06T05:00:00Z,25.3780,-81.0290,1.5,14.4,11111222 
ENP,ioos.station.NOAA.NDBC:GBIF1:1,2019-11-06T06:00:00Z,25.3780,-81.0290,1.5,14.66,11111222 
ENP,ioos.station.NOAA.NDBC:GBIF1:1,2019-11-06T07:00:00Z,25.3780,-81.0290,1.5,11.78,11111222 
ENP,ioos.station.NOAA.NDBC:GBIF1:1,2019-11-06T08:00:00Z,25.3780,-81.0290,1.5,9.84,11111222 
ENP,ioos.station.NOAA.NDBC:GBIF1:1,2019-11-06T09:00:00Z,25.3780,-81.0290,1.5,8.11,11111222 
ENP,ioos.station.NOAA.NDBC:GBIF1:1,2019-11-06T10:00:00Z,25.3780,-81.0290,1.5,6.43,11111222 
ENP,ioos.station.NOAA.NDBC:GBIF1:1,2019-11-06T11:00:00Z,25.3780,-81.0290,1.5,5.02,11111222 
ENP,ioos.station.NOAA.NDBC:GBIF1:1,2019-11-06T12:00:00Z,25.3780,-81.0290,1.5,3.65,11111222 
ENP,ioos.station.NOAA.NDBC:GBIF1:1,2019-11-06T13:00:00Z,25.3780,-81.0290,1.5,3.95,11111222 
ENP,ioos.station.NOAA.NDBC:GBIF1:1,2019-11-06T14:00:00Z,25.3780,-81.0290,1.5,5.58,11111222 
ENP,ioos.station.NOAA.NDBC:GBIF1:1,2019-11-06T15:00:00Z,25.3780,-81.0290,1.5,8.34,11111222 
ENP,ioos.station.NOAA.NDBC:GBIF1:1,2019-11-06T16:00:00Z,25.3780,-81.0290,1.5,10.74,11111222 
ENP,ioos.station.NOAA.NDBC:GBIF1:1,2019-11-06T17:00:00Z,25.3780,-81.0290,1.5,11.97,11111222 
ENP,ioos.station.NOAA.NDBC:GBIF1:1,2019-11-06T18:00:00Z,25.3780,-81.0290,1.5,9.53,11111222 
ENP,ioos.station.NOAA.NDBC:GBIF1:1,2019-11-06T19:00:00Z,25.3780,-81.0290,1.5,7.61,11111222 
ENP,ioos.station.NOAA.NDBC:GBIF1:1,2019-11-06T20:00:00Z,25.3780,-81.0290,1.5,5.58,11111222 
ENP,ioos.station.NOAA.NDBC:GBIF1:1,2019-11-06T21:00:00Z,25.3780,-81.0290,1.5,4.33,11111222 
ENP,ioos.station.NOAA.NDBC:GBIF1:1,2019-11-06T22:00:00Z,25.3780,-81.0290,1.5,4.43,11111222 
ENP,ioos.station.NOAA.NDBC:GBIF1:1,2019-11-06T23:00:00Z,25.3780,-81.0290,1.5,3.31,11111222 
ENP,ioos.station.NOAA.NDBC:GBIF1:1,2019-11-07T00:00:00Z,25.3780,-81.0290,1.5,2.93,11111222 
ENP,ioos.station.NOAA.NDBC:GBIF1:1,2019-11-07T01:00:00Z,25.3780,-81.0290,1.5,2.71,11111222 
ENP,ioos.station.NOAA.NDBC:GBIF1:1,2019-11-07T02:00:00Z,25.3780,-81.0290,1.5,2.82,11111222 
ENP,ioos.station.NOAA.NDBC:GBIF1:1,2019-11-07T03:00:00Z,25.3780,-81.0290,1.5,4.6,11111222 
ENP,ioos.station.NOAA.NDBC:GBIF1:1,2019-11-07T05:00:00Z,25.3780,-81.0290,1.5,8.89,11111222 
ENP,ioos.station.NOAA.NDBC:GBIF1:1,2019-11-07T06:00:00Z,25.3780,-81.0290,1.5,10.68,11111222 
ENP,ioos.station.NOAA.NDBC:GBIF1:1,2019-11-07T07:00:00Z,25.3780,-81.0290,1.5,7.7,11111222 
ENP,ioos.station.NOAA.NDBC:GBIF1:1,2019-11-07T08:00:00Z,25.3780,-81.0290,1.5,5.52,11111222 
ENP,ioos.station.NOAA.NDBC:GBIF1:1,2019-11-07T09:00:00Z,25.3780,-81.0290,1.5,5.2,11111222 
ENP,ioos.station.NOAA.NDBC:GBIF1:1,2019-11-07T10:00:00Z,25.3780,-81.0290,1.5,4.55,11111222 
ENP,ioos.station.NOAA.NDBC:GBIF1:1,2019-11-07T11:00:00Z,25.3780,-81.0290,1.5,3.23,11111222 
ENP,ioos.station.NOAA.NDBC:GBIF1:1,2019-11-07T12:00:00Z,25.3780,-81.0290,1.5,2.67,11111222 
ENP,ioos.station.NOAA.NDBC:GBIF1:1,2019-11-07T13:00:00Z,25.3780,-81.0290,1.5,2.65,11111222 
ENP,ioos.station.NOAA.NDBC:GBIF1:1,2019-11-07T14:00:00Z,25.3780,-81.0290,1.5,2.67,11111222 
ENP,ioos.station.NOAA.NDBC:GBIF1:1,2019-11-07T15:00:00Z,25.3780,-81.0290,1.5,3.97,11111222 
ENP,ioos.station.NOAA.NDBC:GBIF1:1,2019-11-07T16:00:00Z,25.3780,-81.0290,1.5,6.35,11111222 
ENP,ioos.station.NOAA.NDBC:GBIF1:1,2019-11-07T17:00:00Z,25.3780,-81.0290,1.5,9.65,11111222 
ENP,ioos.station.NOAA.NDBC:GBIF1:1,2019-11-07T18:00:00Z,25.3780,-81.0290,1.5,11.91,11111222 
ENP,ioos.station.NOAA.NDBC:GBIF1:1,2019-11-07T19:00:00Z,25.3780,-81.0290,1.5,9.27,11111222 
ENP,ioos.station.NOAA.NDBC:GBIF1:1,2019-11-07T20:00:00Z,25.3780,-81.0290,1.5,6.91,11111222 
ENP,ioos.station.NOAA.NDBC:GBIF1:1,2019-11-07T21:00:00Z,25.3780,-81.0290,1.5,5.15,11111222 
ENP,ioos.station.NOAA.NDBC:GBIF1:1,2019-11-07T22:00:00Z,25.3780,-81.0290,1.5,4.48,11111222 
ENP,ioos.station.NOAA.NDBC:GBIF1:1,2019-11-07T23:00:00Z,25.3780,-81.0290,1.5,3.61,11111222 
ENP,ioos.station.NOAA.NDBC:GBIF1:1,2019-11-08T00:00:00Z,25.3780,-81.0290,1.5,2.8,11111222 
ENP,ioos.station.NOAA.NDBC:GBIF1:1,2019-11-08T01:00:00Z,25.3780,-81.0290,1.5,2.76,11111222 
ENP,ioos.station.NOAA.NDBC:GBIF1:1,2019-11-08T03:00:00Z,25.3780,-81.0290,1.5,3.54,11111222 
ENP,ioos.station.NOAA.NDBC:GBIF1:1,2019-11-08T05:00:00Z,25.3780,-81.0290,1.5,10.42,11111222 
ENP,ioos.station.NOAA.NDBC:GBIF1:1,2019-11-08T07:00:00Z,25.3780,-81.0290,1.5,14.93,11111222 
ENP,ioos.station.NOAA.NDBC:GBIF1:1,2019-11-08T08:00:00Z,25.3780,-81.0290,1.5,12.95,11111222 
ENP,ioos.station.NOAA.NDBC:GBIF1:1,2019-11-08T09:00:00Z,25.3780,-81.0290,1.5,10.94,11111222 
ENP,ioos.station.NOAA.NDBC:GBIF1:1,2019-11-08T10:00:00Z,25.3780,-81.0290,1.5,8.06,11111222 
ENP,ioos.station.NOAA.NDBC:GBIF1:1,2019-11-08T11:00:00Z,25.3780,-81.0290,1.5,5.83,11111222 
ENP,ioos.station.NOAA.NDBC:GBIF1:1,2019-11-08T12:00:00Z,25.3780,-81.0290,1.5,5.09,11111222 
ENP,ioos.station.NOAA.NDBC:GBIF1:1,2019-11-08T14:00:00Z,25.3780,-81.0290,1.5,3.58,11111222 
ENP,ioos.station.NOAA.NDBC:GBIF1:1,2019-11-08T15:00:00Z,25.3780,-81.0290,1.5,6.21,11111222 
ENP,ioos.station.NOAA.NDBC:GBIF1:1,2019-11-08T17:00:00Z,25.3780,-81.0290,1.5,13.41,11111222 
ENP,ioos.station.NOAA.NDBC:GBIF1:1,2019-11-08T18:00:00Z,25.3780,-81.0290,1.5,16.6,11111222 
ENP,ioos.station.NOAA.NDBC:GBIF1:1,2019-11-08T19:00:00Z,25.3780,-81.0290,1.5,18.36,11111222 
ENP,ioos.station.NOAA.NDBC:GBIF1:1,2019-11-08T20:00:00Z,25.3780,-81.0290,1.5,18.29,11111222 
ENP,ioos.station.NOAA.NDBC:GBIF1:1,2019-11-08T21:00:00Z,25.3780,-81.0290,1.5,15.33,11111222 
ENP,ioos.station.NOAA.NDBC:GBIF1:1,2019-11-08T22:00:00Z,25.3780,-81.0290,1.5,14.33,11111222 
ENP,ioos.station.NOAA.NDBC:GBIF1:1,2019-11-08T23:00:00Z,25.3780,-81.0290,1.5,11.39,11111222 
ENP,ioos.station.NOAA.NDBC:GBIF1:1,2019-11-09T00:00:00Z,25.3780,-81.0290,1.5,9.34,11111222 
ENP,ioos.station.NOAA.NDBC:GBIF1:1,2019-11-09T02:00:00Z,25.3780,-81.0290,1.5,10.04,11111222 
ENP,ioos.station.NOAA.NDBC:GBIF1:1,2019-11-09T03:00:00Z,25.3780,-81.0290,1.5,11.71,11111222 
ENP,ioos.station.NOAA.NDBC:GBIF1:1,2019-11-09T05:00:00Z,25.3780,-81.0290,1.5,16.53,11111222 
ENP,ioos.station.NOAA.NDBC:GBIF1:1,2019-11-09T06:00:00Z,25.3780,-81.0290,1.5,19.11,11111222 
ENP,ioos.station.NOAA.NDBC:GBIF1:1,2019-11-09T07:00:00Z,25.3780,-81.0290,1.5,20.82,11111222 
ENP,ioos.station.NOAA.NDBC:GBIF1:1,2019-11-09T08:00:00Z,25.3780,-81.0290,1.5,21.1,11111222 
ENP,ioos.station.NOAA.NDBC:GBIF1:1,2019-11-09T09:00:00Z,25.3780,-81.0290,1.5,17.88,11111222 
ENP,ioos.station.NOAA.NDBC:GBIF1:1,2019-11-09T10:00:00Z,25.3780,-81.0290,1.5,16.0,11111222 
ENP,ioos.station.NOAA.NDBC:GBIF1:1,2019-11-09T11:00:00Z,25.3780,-81.0290,1.5,14.8,11111222 
ENP,ioos.station.NOAA.NDBC:GBIF1:1,2019-11-09T12:00:00Z,25.3780,-81.0290,1.5,13.02,11111222 
ENP,ioos.station.NOAA.NDBC:GBIF1:1,2019-11-09T13:00:00Z,25.3780,-81.0290,1.5,11.65,11111222 
ENP,ioos.station.NOAA.NDBC:GBIF1:1,2019-11-09T14:00:00Z,25.3780,-81.0290,1.5,10.74,11111222 
ENP,ioos.station.NOAA.NDBC:GBIF1:1,2019-11-09T15:00:00Z,25.3780,-81.0290,1.5,9.78,11111222 
ENP,ioos.station.NOAA.NDBC:GBIF1:1,2019-11-09T16:00:00Z,25.3780,-81.0290,1.5,9.59,11111222 
ENP,ioos.station.NOAA.NDBC:GBIF1:1,2019-11-09T17:00:00Z,25.3780,-81.0290,1.5,12.17,11111222 
ENP,ioos.station.NOAA.NDBC:GBIF1:1,2019-11-09T18:00:00Z,25.3780,-81.0290,1.5,15.0,11111222 
ENP,ioos.station.NOAA.NDBC:GBIF1:1,2019-11-09T19:00:00Z,25.3780,-81.0290,1.5,15.53,11111222 
ENP,ioos.station.NOAA.NDBC:GBIF1:1,2019-11-09T20:00:00Z,25.3780,-81.0290,1.5,12.82,11111222 
ENP,ioos.station.NOAA.NDBC:GBIF1:1,2019-11-09T21:00:00Z,25.3780,-81.0290,1.5,10.55,11111222 
ENP,ioos.station.NOAA.NDBC:GBIF1:1,2019-11-09T22:00:00Z,25.3780,-81.0290,1.5,8.12,11111222 
ENP,ioos.station.NOAA.NDBC:GBIF1:1,2019-11-09T23:00:00Z,25.3780,-81.0290,1.5,6.96,11111222 
ENP,ioos.station.NOAA.NDBC:GBIF1:1,2019-11-10T00:00:00Z,25.3780,-81.0290,1.5,6.13,11111222 
ENP,ioos.station.NOAA.NDBC:GBIF1:1,2019-11-10T02:00:00Z,25.3780,-81.0290,1.5,3.57,11111222 
ENP,ioos.station.NOAA.NDBC:GBIF1:1,2019-11-10T03:00:00Z,25.3780,-81.0290,1.5,3.45,11111222 
ENP,ioos.station.NOAA.NDBC:GBIF1:1,2019-11-10T05:00:00Z,25.3780,-81.0290,1.5,7.12,11111222 
ENP,ioos.station.NOAA.NDBC:GBIF1:1,2019-11-10T06:00:00Z,25.3780,-81.0290,1.5,11.06,11111222 
ENP,ioos.station.NOAA.NDBC:GBIF1:1,2019-11-10T07:00:00Z,25.3780,-81.0290,1.5,14.33,11111222 
ENP,ioos.station.NOAA.NDBC:GBIF1:1,2019-11-10T08:00:00Z,25.3780,-81.0290,1.5,15.8,11111222 
ENP,ioos.station.NOAA.NDBC:GBIF1:1,2019-11-10T09:00:00Z,25.3780,-81.0290,1.5,13.34,11111222 
ENP,ioos.station.NOAA.NDBC:GBIF1:1,2019-11-10T10:00:00Z,25.3780,-81.0290,1.5,10.61,11111222 
ENP,ioos.station.NOAA.NDBC:GBIF1:1,2019-11-10T11:00:00Z,25.3780,-81.0290,1.5,8.51,11111222 
ENP,ioos.station.NOAA.NDBC:GBIF1:1,2019-11-10T12:00:00Z,25.3780,-81.0290,1.5,7.1,11111222 
ENP,ioos.station.NOAA.NDBC:GBIF1:1,2019-11-10T13:00:00Z,25.3780,-81.0290,1.5,5.54,11111222 
ENP,ioos.station.NOAA.NDBC:GBIF1:1,2019-11-10T14:00:00Z,25.3780,-81.0290,1.5,3.54,11111222 
ENP,ioos.station.NOAA.NDBC:GBIF1:1,2019-11-10T15:00:00Z,25.3780,-81.0290,1.5,3.32,11111222 
ENP,ioos.station.NOAA.NDBC:GBIF1:1,2019-11-10T16:00:00Z,25.3780,-81.0290,1.5,3.35,11111222 
ENP,ioos.station.NOAA.NDBC:GBIF1:1,2019-11-10T17:00:00Z,25.3780,-81.0290,1.5,6.05,11111222 
ENP,ioos.station.NOAA.NDBC:GBIF1:1,2019-11-10T18:00:00Z,25.3780,-81.0290,1.5,10.29,11111222 
ENP,ioos.station.NOAA.NDBC:GBIF1:1,2019-11-10T19:00:00Z,25.3780,-81.0290,1.5,14.33,11111222 
ENP,ioos.station.NOAA.NDBC:GBIF1:1,2019-11-10T20:00:00Z,25.3780,-81.0290,1.5,16.53,11111222 
ENP,ioos.station.NOAA.NDBC:GBIF1:1,2019-11-10T21:00:00Z,25.3780,-81.0290,1.5,16.0,11111222 
ENP,ioos.station.NOAA.NDBC:GBIF1:1,2019-11-10T22:00:00Z,25.3780,-81.0290,1.5,13.28,11111222 
ENP,ioos.station.NOAA.NDBC:GBIF1:1,2019-11-11T02:00:00Z,25.3780,-81.0290,1.5,4.5,11111222 
ENP,ioos.station.NOAA.NDBC:GBIF1:1,2019-11-11T05:00:00Z,25.3780,-81.0290,1.5,8.02,11111222 
ENP,ioos.station.NOAA.NDBC:GBIF1:1,2019-11-11T11:00:00Z,25.3780,-81.0290,1.5,11.45,11111222 
ENP,ioos.station.NOAA.NDBC:GBIF1:1,2019-11-11T13:00:00Z,25.3780,-81.0290,1.5,7.4,11111222 
ENP,ioos.station.NOAA.NDBC:GBIF1:1,2019-11-11T14:00:00Z,25.3780,-81.0290,1.5,5.28,11111222 
ENP,ioos.station.NOAA.NDBC:GBIF1:1,2019-11-11T15:00:00Z,25.3780,-81.0290,1.5,3.65,11111222 
ENP,ioos.station.NOAA.NDBC:GBIF1:1,2019-11-11T17:00:00Z,25.3780,-81.0290,1.5,6.05,11111222 
ENP,ioos.station.NOAA.NDBC:GBIF1:1,2019-11-11T18:00:00Z,25.3780,-81.0290,1.5,10.16,11111222 
ENP,ioos.station.NOAA.NDBC:GBIF1:1,2019-11-11T19:00:00Z,25.3780,-81.0290,1.5,15.13,11111222 
ENP,ioos.station.NOAA.NDBC:GBIF1:1,2019-11-11T20:00:00Z,25.3780,-81.0290,1.5,18.15,11111222 
ENP,ioos.station.NOAA.NDBC:GBIF1:1,2019-11-11T21:00:00Z,25.3780,-81.0290,1.5,19.65,11111222 
ENP,ioos.station.NOAA.NDBC:GBIF1:1,2019-11-11T22:00:00Z,25.3780,-81.0290,1.5,19.52,11111222 
ENP,ioos.station.NOAA.NDBC:GBIF1:1,2019-11-11T23:00:00Z,25.3780,-81.0290,1.5,17.07,11111222 
ENP,ioos.station.NOAA.NDBC:GBIF1:1,2019-11-12T00:00:00Z,25.3780,-81.0290,1.5,14.33,11111222 
ENP,ioos.station.NOAA.NDBC:GBIF1:1,2019-11-12T01:00:00Z,25.3780,-81.0290,1.5,12.43,11111222 
ENP,ioos.station.NOAA.NDBC:GBIF1:1,2019-11-12T02:00:00Z,25.3780,-81.0290,1.5,10.42,11111222 
ENP,ioos.station.NOAA.NDBC:GBIF1:1,2019-11-12T03:00:00Z,25.3780,-81.0290,1.5,11.06,11111222 
ENP,ioos.station.NOAA.NDBC:GBIF1:1,2019-11-12T05:00:00Z,25.3780,-81.0290,1.5,15.0,11111222 
ENP,ioos.station.NOAA.NDBC:GBIF1:1,2019-11-12T06:00:00Z,25.3780,-81.0290,1.5,17.61,11111222 
ENP,ioos.station.NOAA.NDBC:GBIF1:1,2019-11-12T07:00:00Z,25.3780,-81.0290,1.5,20.06,11111222 
ENP,ioos.station.NOAA.NDBC:GBIF1:1,2019-11-12T08:00:00Z,25.3780,-81.0290,1.5,21.65,11111222 
ENP,ioos.station.NOAA.NDBC:GBIF1:1,2019-11-12T09:00:00Z,25.3780,-81.0290,1.5,22.48,11111222 
ENP,ioos.station.NOAA.NDBC:GBIF1:1,2019-11-12T10:00:00Z,25.3780,-81.0290,1.5,20.68,11111222 
ENP,ioos.station.NOAA.NDBC:GBIF1:1,2019-11-12T11:00:00Z,25.3780,-81.0290,1.5,19.04,11111222 
ENP,ioos.station.NOAA.NDBC:GBIF1:1,2019-11-12T12:00:00Z,25.3780,-81.0290,1.5,17.21,11111222 
ENP,ioos.station.NOAA.NDBC:GBIF1:1,2019-11-12T14:00:00Z,25.3780,-81.0290,1.5,14.8,11111222 
ENP,ioos.station.NOAA.NDBC:GBIF1:1,2019-11-12T15:00:00Z,25.3780,-81.0290,1.5,13.47,11111222 
ENP,ioos.station.NOAA.NDBC:GBIF1:1,2019-11-12T16:00:00Z,25.3780,-81.0290,1.5,13.15,11111222 
ENP,ioos.station.NOAA.NDBC:GBIF1:1,2019-11-12T17:00:00Z,25.3780,-81.0290,1.5,14.73,11111222 
ENP,ioos.station.NOAA.NDBC:GBIF1:1,2019-11-12T18:00:00Z,25.3780,-81.0290,1.5,17.21,11111222 
ENP,ioos.station.NOAA.NDBC:GBIF1:1,2019-11-12T19:00:00Z,25.3780,-81.0290,1.5,18.83,11111222 
ENP,ioos.station.NOAA.NDBC:GBIF1:1,2019-11-12T20:00:00Z,25.3780,-81.0290,1.5,21.37,11111222 
ENP,ioos.station.NOAA.NDBC:GBIF1:1,2019-11-12T21:00:00Z,25.3780,-81.0290,1.5,22.76,11111222 
ENP,ioos.station.NOAA.NDBC:GBIF1:1,2019-11-12T22:00:00Z,25.3780,-81.0290,1.5,23.32,11111222 
ENP,ioos.station.NOAA.NDBC:GBIF1:1,2019-11-12T23:00:00Z,25.3780,-81.0290,1.5,21.51,11111222 
ENP,ioos.station.NOAA.NDBC:GBIF1:1,2019-11-13T00:00:00Z,25.3780,-81.0290,1.5,20.48,11111222 
ENP,ioos.station.NOAA.NDBC:GBIF1:1,2019-11-13T01:00:00Z,25.3780,-81.0290,1.5,19.24,11111222 
ENP,ioos.station.NOAA.NDBC:GBIF1:1,2019-11-13T02:00:00Z,25.3780,-81.0290,1.5,18.56,11111222 
ENP,ioos.station.NOAA.NDBC:GBIF1:1,2019-11-13T03:00:00Z,25.3780,-81.0290,1.5,19.58,11111222 
ENP,ioos.station.NOAA.NDBC:GBIF1:1,2019-11-13T05:00:00Z,25.3780,-81.0290,1.5,20.61,11111222 
ENP,ioos.station.NOAA.NDBC:GBIF1:1,2019-11-13T06:00:00Z,25.3780,-81.0290,1.5,21.3,11111222 
ENP,ioos.station.NOAA.NDBC:GBIF1:1,2019-11-13T07:00:00Z,25.3780,-81.0290,1.5,22.76,11111222 
ENP,ioos.station.NOAA.NDBC:GBIF1:1,2019-11-13T08:00:00Z,25.3780,-81.0290,1.5,24.16,11111222 
ENP,ioos.station.NOAA.NDBC:GBIF1:1,2019-11-13T09:00:00Z,25.3780,-81.0290,1.5,24.79,11111222 
ENP,ioos.station.NOAA.NDBC:GBIF1:1,2019-11-13T10:00:00Z,25.3780,-81.0290,1.5,25.0,11111222 
ENP,ioos.station.NOAA.NDBC:GBIF1:1,2019-11-13T11:00:00Z,25.3780,-81.0290,1.5,22.62,11111222 
ENP,ioos.station.NOAA.NDBC:GBIF1:1,2019-11-13T12:00:00Z,25.3780,-81.0290,1.5,22.34,11111222 
ENP,ioos.station.NOAA.NDBC:GBIF1:1,2019-11-13T13:00:00Z,25.3780,-81.0290,1.5,22.27,11111222 
ENP,ioos.station.NOAA.NDBC:GBIF1:1,2019-11-13T14:00:00Z,25.3780,-81.0290,1.5,21.16,11111222 
ENP,ioos.station.NOAA.NDBC:GBIF1:1,2019-11-13T15:00:00Z,25.3780,-81.0290,1.5,20.27,11111222 
ENP,ioos.station.NOAA.NDBC:GBIF1:1,2019-11-13T17:00:00Z,25.3780,-81.0290,1.5,17.88,11111222 
ENP,ioos.station.NOAA.NDBC:GBIF1:1,2019-11-13T19:00:00Z,25.3780,-81.0290,1.5,20.68,11111222 
ENP,ioos.station.NOAA.NDBC:GBIF1:1,2019-11-13T20:00:00Z,25.3780,-81.0290,1.5,21.86,11111222 
ENP,ioos.station.NOAA.NDBC:GBIF1:1,2019-11-13T21:00:00Z,25.3780,-81.0290,1.5,23.25,11111222 